2018-014K

Last updated on Nov. 16, 2018, 12:08 a.m. UTC

1 43189U 18014K   18319.33576183  .00000058  00000-0  10236-4 0  9996
2 43189  97.7158 225.7766 0011355  12.9256 347.2254 14.96531764 41478
UTC
Height (km)
Latitude
Longitude
Inclination
Orbital Period
UTC large
Height (km)
Speed (km/s)
/
Latitude / Longitude
Inclination (degrees)
Orbital Period (minutes)
Azimuth
Elevation
Range (km)
Doppler Factor
iOS Compass Heading
iOS Angle